Regional Weather Roundup
Issued by NWS Albany, NY

Home | Current Version | Previous Version | Text Only | Print | Product List | Glossary On
Versions: 1 2 3 4 5 6 7 8 9 10 11 12 13 14 15 16 17 18 19 20 21 22 23 24 25 26 27 28 29 30 31 32 33 34 35 36 37 38 39 40 41 42 43 44 45 46 47 48 49 50
000
ASUS41 KALY 070510
RWRALY

NEW YORK STATE HOURLY WEATHER ROUNDUP
NATIONAL WEATHER SERVICE ALBANY NY
100 AM EDT TUE JUL 07 2015

NOTE: "FAIR" INDICATES FEW OR NO CLOUDS BELOW 12,000 FEET WITH NO
SIGNIFICANT WEATHER AND/OR NO OBSTRUCTIONS TO VISIBILITY.

NYZ032-033-038>043-046>054-057>066-NYZ062>081-070600-
EAST


CITY           SKY/WX    TMP DP  RH WIND       PRES   REMARKS
ALBANY         PTCLDY    73  64  73 S9        30.06S
GLENS FALLS    CLEAR     66  62  87 CALM      30.06S
POUGHKEEPSIE   CLOUDY    73  65  75 CALM      30.08S
NEWBURGH       PTCLDY    73  66  78 VRB6      30.10F
MONTGOMERY     CLOUDY    70  68  93 CALM      30.08F
WHITE PLAINS   CLOUDY    71  65  81 CALM      30.09F
ISLIP          PTCLDY    73  67  81 S7        30.08S
NEW YORK CITY  CLOUDY    75  69  81 S8        30.08S
CENTRAL PARK   CLOUDY    76  69  79 CALM      30.11S
$$

NYZ005>009-017-018-044>046-055-056-070600-
CENTRAL


CITY           SKY/WX    TMP DP  RH WIND       PRES   REMARKS
FULTON         CLEAR     72  66  81 SE5       29.98F
SYRACUSE       PTCLDY    74  67  78 S7        29.99F
ROME           PTCLDY    70  65  84 E6        30.03F
ELMIRA         MOCLDY    69  68  96 CALM      30.01F
BINGHAMTON     PTCLDY    68  65  90 S10       30.06F
MONTICELLO     MOCLDY    68  66  94 S5        30.12F
$$

NYZ026>034-041>043-070600-
NORTH


CITY           SKY/WX    TMP DP  RH WIND       PRES   REMARKS
WATERTOWN      CLEAR     74  65  73 S8        29.96F
FORT DRUM      NOT AVBL
MASSENA        CLEAR     64  60  87 CALM      29.98F
SARANAC LAKE   CLEAR     55  53  93 CALM      30.06F
PLATTSBURGH    CLEAR     63  61  93 CALM      30.01F
$$

NYZ001>004-010>016-019>021-070600-
WEST


CITY           SKY/WX    TMP DP  RH WIND       PRES   REMARKS
NIAGARA FALLS  CLEAR     70  66  87 S5        29.93F
BUFFALO        PTCLDY    72  67  84 S6        29.95F
DUNKIRK        CLEAR     74  67  78 SW9       29.95F
JAMESTOWN      CLEAR     66  64  94 SE8       30.01F
WELLSVILLE     CLOUDY    68  65  90 S5        30.06F
ROCHESTER      PTCLDY    73  67  81 S3        29.97F
PENN YAN       CLEAR     68  66  93 CALM      30.00F
$$

             KEY
       WCI = WIND CHILL INDEX
       VSB = VISIBILITY
       HX  = HEAT INDEX
$$



USA.gov is the U.S. government's official web portal to all federal, state and local government web resources and services.